When you browse on this site, cookies collect data to enhance your experience and personalize the content and advertising you see.
Visit our Privacy Policy to learn more. By continuing to use the site, you agree to this use of cookies and data.
  • In Czech Republic
  • List of Countries
  • For 7 days
  • Water Temperature
  • Weather Map
  • Weather Widgets
  • user-avatar
    Login

    Hourly Weather Encamp

    Today, 13 December, Friday

    Time Temperature Precipitation Wind Pressure Humidity
    00:00 -1°C° 2.7 mm 2 mps 611 mmHg 97%
    01:00 -1°C° 2.1 mm 2 mps 610 mmHg 98%
    02:00 -1°C° 2.1 mm 2 mps 610 mmHg 98%
    03:00 +1°C° 2.1 mm 2 mps 609 mmHg 98%
    04:00 +1°C° 1.7 mm 2 mps 609 mmHg 98%
    05:00 +1°C° 1.7 mm 2 mps 609 mmHg 99%
    06:00 +1°C° 1.7 mm 2 mps 609 mmHg 99%
    07:00 +1°C° 2 mm 2 mps 610 mmHg 99%
    08:00 +2°C° 2 mm 2 mps 610 mmHg 99%
    09:00 +2°C° 2 mm 2 mps 610 mmHg 98%
    10:00 +1°C° 2.4 mm 3 mps 611 mmHg 98%
    11:00 +1°C° 2.4 mm 3 mps 611 mmHg 97%
    12:00 0°C° 2.4 mm 4 mps 611 mmHg 97%
    13:00 0°C° 1.1 mm 4 mps 612 mmHg 97%
    14:00 0°C° 1.1 mm 4 mps 612 mmHg 97%
    15:00 0°C° 1.1 mm 4 mps 612 mmHg 96%
    16:00 0°C° 2.4 mm 4 mps 612 mmHg 97%
    17:00 +1°C° 2.4 mm 3 mps 613 mmHg 98%
    18:00 +2°C° 2.4 mm 2 mps 613 mmHg 99%
    19:00 +2°C° 2 mm 2 mps 614 mmHg 99%
    20:00 +2°C° 2 mm 2 mps 614 mmHg 99%
    21:00 +2°C° 2 mm 2 mps 615 mmHg 98%
    22:00 +2°C° 0.9 mm 2 mps 615 mmHg 98%
    23:00 +2°C° 0.9 mm 2 mps 615 mmHg 98%

    Tomorrow, 14 December, Saturday

    Time Temperature Precipitation Wind Pressure Humidity
    00:00 +2°C° 0.9 mm 2 mps 616 mmHg 98%
    01:00 +2°C° 0 mm 2 mps 616 mmHg 97%
    02:00 +2°C° 0 mm 2 mps 616 mmHg 97%
    03:00 +2°C° 0 mm 2 mps 616 mmHg 96%
    04:00 +1°C° 0 mm 2 mps 616 mmHg 95%
    05:00 0°C° 0 mm 3 mps 617 mmHg 95%
    06:00 0°C° 0 mm 3 mps 617 mmHg 94%
    07:00 +1°C° 0 mm 2 mps 618 mmHg 94%
    08:00 +1°C° 0 mm 2 mps 618 mmHg 94%
    09:00 +2°C° 0 mm 2 mps 619 mmHg 93%
    10:00 +4°C° 0 mm 1 mps 619 mmHg 93%
    11:00 +4°C° 0 mm 1 mps 620 mmHg 92%
    12:00 +4°C° 0 mm 0 mps 620 mmHg 91%
    13:00 +4°C° 0 mm 0 mps 620 mmHg 91%
    14:00 +4°C° 0 mm 0 mps 619 mmHg 92%
    15:00 +4°C° 0 mm 1 mps 619 mmHg 93%
    16:00 +3°C° 0 mm 1 mps 619 mmHg 93%
    17:00 +2°C° 0 mm 1 mps 619 mmHg 93%
    18:00 +1°C° 0 mm 1 mps 619 mmHg 93%
    19:00 +1°C° 0 mm 1 mps 619 mmHg 91%
    20:00 +1°C° 0 mm 1 mps 619 mmHg 90%
    21:00 +1°C° 0 mm 1 mps 619 mmHg 89%
    22:00 +1°C° 0 mm 1 mps 619 mmHg 87%
    23:00 +1°C° 0 mm 1 mps 619 mmHg 85%

    Day after tomorrow, 15 December, Sunday

    Time Temperature Precipitation Wind Pressure Humidity
    00:00 +1°C° 0 mm 1 mps 619 mmHg 84%
    01:00 +1°C° 0 mm 1 mps 618 mmHg 83%
    02:00 +1°C° 0 mm 1 mps 618 mmHg 82%
    03:00 -1°C° 0 mm 2 mps 618 mmHg 81%
    04:00 -1°C° 0 mm 2 mps 618 mmHg 81%
    05:00 +1°C° 0 mm 1 mps 618 mmHg 80%
    06:00 +1°C° 0 mm 1 mps 618 mmHg 80%
    07:00 +2°C° 0 mm 1 mps 619 mmHg 80%
    08:00 +3°C° 0 mm 1 mps 619 mmHg 80%
    09:00 +4°C° 0 mm 1 mps 620 mmHg 80%
    10:00 +4°C° 0 mm 1 mps 620 mmHg 82%
    11:00 +4°C° 0 mm 2 mps 620 mmHg 84%
    12:00 +5°C° 0 mm 2 mps 620 mmHg 87%
    13:00 +4°C° 0 mm 2 mps 619 mmHg 87%
    14:00 +4°C° 0 mm 2 mps 619 mmHg 88%
    15:00 +3°C° 0 mm 2 mps 619 mmHg 88%
    16:00 +2°C° 0 mm 2 mps 618 mmHg 86%
    17:00 +1°C° 0 mm 2 mps 618 mmHg 83%
    18:00 -1°C° 0 mm 2 mps 617 mmHg 81%
    19:00 -1°C° 0 mm 2 mps 617 mmHg 78%
    20:00 -1°C° 0 mm 2 mps 617 mmHg 75%
    21:00 -2°C° 0 mm 2 mps 617 mmHg 72%
    22:00 -1°C° 0 mm 2 mps 617 mmHg 73%
    23:00 -1°C° 0 mm 2 mps 617 mmHg 73%

    16 December, Monday

    Time Temperature Precipitation Wind Pressure Humidity
    00:00 -1°C° 0 mm 2 mps 617 mmHg 74%
    01:00 -1°C° 0 mm 2 mps 617 mmHg 77%
    02:00 0°C° 0 mm 3 mps 616 mmHg 80%
    03:00 0°C° 0 mm 3 mps 616 mmHg 83%
    04:00 0°C° 0 mm 3 mps 616 mmHg 85%
    05:00 0°C° 0 mm 3 mps 616 mmHg 87%
    06:00 0°C° 0 mm 3 mps 616 mmHg 89%
    07:00 +1°C° 0 mm 3 mps 616 mmHg 89%
    08:00 +1°C° 0 mm 3 mps 616 mmHg 89%
    09:00 +2°C° 0 mm 3 mps 616 mmHg 89%
    10:00 +1°C° 0 mm 4 mps 616 mmHg 89%
    11:00 +3°C° 0 mm 4 mps 616 mmHg 89%
    12:00 +3°C° 0 mm 4 mps 616 mmHg 89%
    13:00 +3°C° 0 mm 4 mps 615 mmHg 89%
    14:00 +3°C° 0 mm 3 mps 615 mmHg 89%
    15:00 +3°C° 0 mm 3 mps 614 mmHg 89%
    16:00 +2°C° 0 mm 3 mps 614 mmHg 89%
    17:00 +2°C° 0 mm 3 mps 614 mmHg 89%
    18:00 +1°C° 0 mm 3 mps 613 mmHg 90%
    19:00 +1°C° 0 mm 3 mps 613 mmHg 89%
    20:00 +1°C° 0 mm 3 mps 613 mmHg 88%
    21:00 +1°C° 0 mm 3 mps 613 mmHg 87%
    22:00 0°C° 0 mm 3 mps 613 mmHg 86%
    23:00 0°C° 0 mm 3 mps 613 mmHg 85%

    17 December, Tuesday

    Time Temperature Precipitation Wind Pressure Humidity
    00:00 -1°C° 0 mm 3 mps 613 mmHg 85%
    01:00 -1°C° 0 mm 3 mps 613 mmHg 85%
    02:00 -1°C° 0 mm 3 mps 613 mmHg 85%
    03:00 -1°C° 0 mm 2 mps 612 mmHg 86%
    04:00 -1°C° 0 mm 2 mps 613 mmHg 85%
    05:00 -1°C° 0 mm 2 mps 613 mmHg 85%
    06:00 -1°C° 0 mm 2 mps 613 mmHg 85%
    07:00 +1°C° 0 mm 2 mps 614 mmHg 86%
    08:00 +2°C° 0 mm 2 mps 615 mmHg 87%
    09:00 +3°C° 0 mm 2 mps 615 mmHg 88%
    10:00 +4°C° 0.2 mm 1 mps 616 mmHg 88%
    11:00 +5°C° 0.2 mm 1 mps 616 mmHg 89%
    12:00 +5°C° 0.2 mm 1 mps 617 mmHg 89%
    13:00 +5°C° 0.2 mm 1 mps 617 mmHg 91%
    14:00 +5°C° 0.2 mm 1 mps 617 mmHg 93%
    15:00 +4°C° 0.2 mm 1 mps 617 mmHg 94%
    16:00 +4°C° 0 mm 1 mps 617 mmHg 95%
    17:00 +3°C° 0 mm 1 mps 617 mmHg 96%
    18:00 +3°C° 0 mm 1 mps 617 mmHg 96%
    19:00 +2°C° 0 mm 1 mps 618 mmHg 95%
    20:00 +2°C° 0 mm 1 mps 618 mmHg 93%
    21:00 +2°C° 0 mm 1 mps 618 mmHg 91%
    22:00 +2°C° 0 mm 1 mps 618 mmHg 91%
    23:00 +2°C° 0 mm 1 mps 619 mmHg 92%

    18 December, Wednesday

    Time Temperature Precipitation Wind Pressure Humidity
    00:00 +2°C° 0 mm 1 mps 619 mmHg 92%
    01:00 +2°C° 0.1 mm 1 mps 619 mmHg 93%
    02:00 +2°C° 0.1 mm 1 mps 619 mmHg 93%
    03:00 +2°C° 0.1 mm 1 mps 619 mmHg 94%
    04:00 +2°C° 0.1 mm 1 mps 619 mmHg 94%
    05:00 +2°C° 0.1 mm 1 mps 619 mmHg 94%
    06:00 +2°C° 0.1 mm 1 mps 619 mmHg 94%
    07:00 +3°C° 0 mm 1 mps 620 mmHg 93%
    08:00 +3°C° 0 mm 1 mps 620 mmHg 92%
    09:00 +4°C° 0 mm 1 mps 621 mmHg 91%
    10:00 +5°C° 0 mm 1 mps 621 mmHg 90%
    11:00 +5°C° 0 mm 1 mps 621 mmHg 89%
    12:00 +6°C° 0 mm 1 mps 622 mmHg 88%
    13:00 +6°C° 0 mm 1 mps 621 mmHg 89%
    14:00 +6°C° 0 mm 1 mps 621 mmHg 91%
    15:00 +5°C° 0 mm 1 mps 621 mmHg 92%
    16:00 +4°C° 0 mm 1 mps 620 mmHg 92%
    17:00 +3°C° 0 mm 1 mps 620 mmHg 92%
    18:00 +2°C° 0 mm 1 mps 620 mmHg 92%
    19:00 +2°C° 0.1 mm 1 mps 620 mmHg 91%
    20:00 +2°C° 0.1 mm 1 mps 620 mmHg 91%
    21:00 +2°C° 0.1 mm 1 mps 620 mmHg 90%
    22:00 +2°C° 0.1 mm 1 mps 620 mmHg 91%
    23:00 +2°C° 0.1 mm 1 mps 620 mmHg 91%
    Show more